Location: Le Petit-Vavre
(46.5081°N, 1.5239°E)
Time: 07:27:06
(UTC+00:00)

Lacrosse 4 Rocket - Pass Details

Date: 03 March 2021
Orbit: 537 x 620 km, 68.0° (Epoch: 18 April)

Event Time Altitude Azimuth Distance (km) Brightness Sun altitude
Rises 19:09:43 0° 179° (S) 2,813 4.8 -15.7°
Reaches altitude 10° 19:12:11 10° 166° (SSE) 1,931 3.9 -16.1°
Enters shadow 19:14:21 22° 141° (SE) 1,341 2.9 -16.5°
